Location: Izdebno
(52.6670°N, 16.2170°E)
Time: 02:44:50
(UTC+02:00)

SR - Pass Details

Date: 01 March 2024
Orbit: 577 x 862 km, 66.7° (Epoch: 22 April)

Event Time Altitude Azimuth Distance (km) Brightness Sun altitude
Rises 20:18:18 0° 317° (NW) 3,307 ? -25.1°
Reaches altitude 10° 20:21:07 10° 328° (NNW) 2,327 ? -25.5°
Enters shadow 20:25:37 29° 26° (NNE) 1,322 ? -26.1°
Maximum altitude 20:25:44 29° 29° (NNE) 1,319 - -26.2°
Drops below altitude 10° 20:30:02 10° 90° (E) 2,150 - -26.8°
Sets 20:32:32 0° 102° (ESE) 3,013 - -27.1°
